contact:dominique.lefevre@mio.osupytheas.fr, maurice.libes@osupytheas.fr, didier.mallarino@osupytheas.fr
Project:EMSO http://www.emso-fr.org/EMSO-France
Depth: 2436.0 m
Title:EMSO Ligure Ouest : Data MII capteur MICROCAT
DateTime_Computer,Latitude,Longitude,Temperature,Conductivity,Pressure,DateTime_Instrument
DateTime_Computer,Latitude,Longitude,degC,S m-1,dbar,DateTime_Instrument
2021-10-20T00:02:49Z,42.805,6.029,13.2988,4.60009,2470.413,2021-10-20T02:04:13Z
2021-10-20T00:05:52Z,42.805,6.029,13.2991,4.60009,2470.437,2021-10-20T02:07:16Z
2021-10-20T00:08:55Z,42.805,6.029,13.2990,4.60008,2470.413,2021-10-20T02:10:19Z
2021-10-20T00:11:59Z,42.805,6.029,13.2991,4.60010,2470.413,2021-10-20T02:13:22Z
2021-10-20T00:15:02Z,42.805,6.029,13.2994,4.60010,2470.427,2021-10-20T02:16:26Z
2021-10-20T00:18:05Z,42.805,6.029,13.2992,4.60009,2470.427,2021-10-20T02:19:29Z
2021-10-20T00:21:08Z,42.805,6.029,13.2989,4.60010,2470.413,2021-10-20T02:22:32Z
2021-10-20T00:24:11Z,42.805,6.029,13.2991,4.60009,2470.413,2021-10-20T02:25:35Z
2021-10-20T00:27:14Z,42.805,6.029,13.2991,4.60019,2470.413,2021-10-20T02:28:38Z
2021-10-20T00:30:17Z,42.805,6.029,13.2992,4.60009,2470.39,2021-10-20T02:31:41Z
2021-10-20T00:33:20Z,42.805,6.029,13.2994,4.60010,2470.46,2021-10-20T02:34:44Z
2021-10-20T00:36:24Z,42.805,6.029,13.2993,4.60009,2470.413,2021-10-20T02:37:47Z
2021-10-20T00:39:27Z,42.805,6.029,13.2996,4.60008,2470.46,2021-10-20T02:40:51Z
2021-10-20T00:42:30Z,42.805,6.029,13.2993,4.60007,2470.413,2021-10-20T02:43:54Z
2021-10-20T00:45:33Z,42.805,6.029,13.2990,4.60009,2470.413,2021-10-20T02:46:57Z
2021-10-20T00:48:36Z,42.805,6.029,13.2994,4.60012,2470.45,2021-10-20T02:50:00Z
2021-10-20T00:51:39Z,42.805,6.029,13.2991,4.60009,2470.39,2021-10-20T02:53:03Z
2021-10-20T00:54:42Z,42.805,6.029,13.2993,4.60011,2470.437,2021-10-20T02:56:06Z
2021-10-20T00:57:45Z,42.805,6.029,13.2993,4.60008,2470.404,2021-10-20T02:59:09Z
2021-10-20T01:00:49Z,42.805,6.029,13.2994,4.60008,2470.413,2021-10-20T03:02:12Z
2021-10-20T01:03:52Z,42.805,6.029,13.2992,4.60009,2470.413,2021-10-20T03:05:16Z
2021-10-20T01:06:55Z,42.805,6.029,13.2993,4.60009,2470.366,2021-10-20T03:08:19Z
2021-10-20T01:09:58Z,42.805,6.029,13.2994,4.60008,2470.413,2021-10-20T03:11:22Z
2021-10-20T01:13:01Z,42.805,6.029,13.2993,4.60008,2470.404,2021-10-20T03:14:25Z
2021-10-20T01:16:04Z,42.805,6.029,13.2996,4.60011,2470.483,2021-10-20T03:17:28Z
2021-10-20T01:19:07Z,42.805,6.029,13.2992,4.60009,2470.45,2021-10-20T03:20:31Z
2021-10-20T01:22:10Z,42.805,6.029,13.2987,4.60009,2470.413,2021-10-20T03:23:34Z
2021-10-20T01:25:14Z,42.805,6.029,13.2991,4.60009,2470.427,2021-10-20T03:26:37Z
2021-10-20T01:28:17Z,42.805,6.029,13.2993,4.60008,2470.413,2021-10-20T03:29:41Z
2021-10-20T01:31:20Z,42.805,6.029,13.2992,4.60009,2470.39,2021-10-20T03:32:44Z
2021-10-20T01:34:23Z,42.805,6.029,13.2990,4.60009,2470.39,2021-10-20T03:35:47Z
2021-10-20T01:37:26Z,42.805,6.029,13.2991,4.60009,2470.404,2021-10-20T03:38:50Z
2021-10-20T01:40:29Z,42.805,6.029,13.2998,4.60009,2470.404,2021-10-20T03:41:53Z
2021-10-20T01:43:32Z,42.805,6.029,13.2990,4.60007,2470.39,2021-10-20T03:44:56Z
2021-10-20T01:46:35Z,42.805,6.029,13.2991,4.60008,2470.39,2021-10-20T03:47:59Z
2021-10-20T01:49:39Z,42.805,6.029,13.2992,4.60009,2470.366,2021-10-20T03:51:02Z
2021-10-20T01:52:42Z,42.805,6.029,13.2993,4.60014,2470.366,2021-10-20T03:54:06Z
2021-10-20T01:55:45Z,42.805,6.029,13.2994,4.60011,2470.343,2021-10-20T03:57:09Z
2021-10-20T01:58:48Z,42.805,6.029,13.2992,4.60009,2470.366,2021-10-20T04:00:12Z
2021-10-20T02:01:51Z,42.805,6.029,13.3000,4.60009,2470.343,2021-10-20T04:03:15Z
2021-10-20T02:04:54Z,42.805,6.029,13.2987,4.60008,2470.343,2021-10-20T04:06:18Z
2021-10-20T02:07:57Z,42.805,6.029,13.2993,4.60011,2470.38,2021-10-20T04:09:21Z
2021-10-20T02:11:00Z,42.805,6.029,13.2990,4.60013,2470.343,2021-10-20T04:12:24Z
2021-10-20T02:14:04Z,42.805,6.029,13.2994,4.60009,2470.366,2021-10-20T04:15:27Z
2021-10-20T02:17:07Z,42.805,6.029,13.2993,4.60009,2470.39,2021-10-20T04:18:31Z
2021-10-20T02:20:10Z,42.805,6.029,13.2990,4.60009,2470.343,2021-10-20T04:21:34Z
2021-10-20T02:23:13Z,42.805,6.029,13.2995,4.60008,2470.38,2021-10-20T04:24:37Z
2021-10-20T02:26:16Z,42.805,6.029,13.2992,4.60008,2470.366,2021-10-20T04:27:40Z
2021-10-20T02:29:19Z,42.805,6.029,13.2993,4.60016,2470.357,2021-10-20T04:30:43Z
2021-10-20T02:32:22Z,42.805,6.029,13.2995,4.60012,2470.39,2021-10-20T04:33:46Z
2021-10-20T02:35:25Z,42.805,6.029,13.2994,4.60011,2470.404,2021-10-20T04:36:49Z
2021-10-20T02:38:29Z,42.805,6.029,13.2989,4.60009,2470.39,2021-10-20T04:39:52Z
2021-10-20T02:41:32Z,42.805,6.029,13.2995,4.60009,2470.366,2021-10-20T04:42:55Z
2021-10-20T02:44:35Z,42.805,6.029,13.2990,4.60010,2470.366,2021-10-20T04:45:59Z
2021-10-20T02:47:38Z,42.805,6.029,13.2991,4.60008,2470.404,2021-10-20T04:49:02Z
2021-10-20T02:50:41Z,42.805,6.029,13.2993,4.60008,2470.366,2021-10-20T04:52:05Z
2021-10-20T02:53:44Z,42.805,6.029,13.2993,4.60014,2470.39,2021-10-20T04:55:08Z
2021-10-20T02:56:47Z,42.805,6.029,13.2992,4.60010,2470.38,2021-10-20T04:58:11Z
2021-10-20T02:59:50Z,42.805,6.029,13.2995,4.60013,2470.427,2021-10-20T05:01:14Z
2021-10-20T03:02:54Z,42.805,6.029,13.2991,4.60011,2470.404,2021-10-20T05:04:17Z
2021-10-20T03:05:57Z,42.805,6.029,13.2991,4.60011,2470.39,2021-10-20T05:07:20Z
2021-10-20T03:09:00Z,42.805,6.029,13.2991,4.60009,2470.404,2021-10-20T05:10:24Z
2021-10-20T03:12:03Z,42.805,6.029,13.2993,4.60008,2470.404,2021-10-20T05:13:27Z
2021-10-20T03:15:06Z,42.805,6.029,13.2993,4.60009,2470.427,2021-10-20T05:16:30Z
2021-10-20T03:18:09Z,42.805,6.029,13.2990,4.60009,2470.39,2021-10-20T05:19:33Z
2021-10-20T03:21:12Z,42.805,6.029,13.2989,4.60009,2470.427,2021-10-20T05:22:36Z
2021-10-20T03:24:15Z,42.805,6.029,13.2996,4.60009,2470.39,2021-10-20T05:25:39Z
2021-10-20T03:27:18Z,42.805,6.029,13.2994,4.60009,2470.427,2021-10-20T05:28:42Z
2021-10-20T03:30:22Z,42.805,6.029,13.2992,4.60019,2470.437,2021-10-20T05:31:45Z
2021-10-20T03:33:25Z,42.805,6.029,13.2991,4.60009,2470.45,2021-10-20T05:34:49Z
2021-10-20T03:36:28Z,42.805,6.029,13.2993,4.60009,2470.413,2021-10-20T05:37:52Z
2021-10-20T03:39:31Z,42.805,6.029,13.2993,4.60014,2470.437,2021-10-20T05:40:55Z
2021-10-20T03:42:34Z,42.805,6.029,13.2994,4.60009,2470.437,2021-10-20T05:43:58Z
2021-10-20T03:45:37Z,42.805,6.029,13.2994,4.60009,2470.427,2021-10-20T05:47:01Z
2021-10-20T03:48:40Z,42.805,6.029,13.2993,4.60009,2470.437,2021-10-20T05:50:04Z
2021-10-20T03:51:43Z,42.805,6.029,13.2991,4.60010,2470.413,2021-10-20T05:53:07Z
2021-10-20T03:54:47Z,42.805,6.029,13.2989,4.60008,2470.437,2021-10-20T05:56:10Z
2021-10-20T03:57:50Z,42.805,6.029,13.2992,4.60009,2470.437,2021-10-20T05:59:14Z
2021-10-20T04:00:53Z,42.805,6.029,13.2996,4.60011,2470.474,2021-10-20T06:02:17Z
2021-10-20T04:03:56Z,42.805,6.029,13.2995,4.60016,2470.474,2021-10-20T06:05:20Z
2021-10-20T04:06:59Z,42.805,6.029,13.2995,4.60009,2470.474,2021-10-20T06:08:23Z
2021-10-20T04:10:02Z,42.805,6.029,13.2992,4.60010,2470.46,2021-10-20T06:11:26Z
2021-10-20T04:13:05Z,42.805,6.029,13.2993,4.60013,2470.474,2021-10-20T06:14:29Z
2021-10-20T04:16:08Z,42.805,6.029,13.2993,4.60011,2470.474,2021-10-20T06:17:32Z
2021-10-20T04:19:12Z,42.805,6.029,13.2993,4.60009,2470.497,2021-10-20T06:20:35Z
2021-10-20T04:22:15Z,42.805,6.029,13.2991,4.60009,2470.483,2021-10-20T06:23:39Z
2021-10-20T04:25:18Z,42.805,6.029,13.2992,4.60009,2470.46,2021-10-20T06:26:42Z
2021-10-20T04:28:21Z,42.805,6.029,13.2991,4.60009,2470.483,2021-10-20T06:29:45Z
2021-10-20T04:31:24Z,42.805,6.029,13.2992,4.60009,2470.507,2021-10-20T06:32:48Z
2021-10-20T04:34:27Z,42.805,6.029,13.2992,4.60009,2470.507,2021-10-20T06:35:51Z
2021-10-20T04:37:30Z,42.805,6.029,13.2992,4.60009,2470.497,2021-10-20T06:38:54Z
2021-10-20T04:40:33Z,42.805,6.029,13.2995,4.60009,2470.507,2021-10-20T06:41:57Z
2021-10-20T04:43:37Z,42.805,6.029,13.2995,4.60013,2470.483,2021-10-20T06:45:00Z
2021-10-20T04:46:40Z,42.805,6.029,13.2994,4.60008,2470.507,2021-10-20T06:48:04Z
2021-10-20T04:49:43Z,42.805,6.029,13.2995,4.60011,2470.483,2021-10-20T06:51:07Z
2021-10-20T04:52:46Z,42.805,6.029,13.2993,4.60009,2470.483,2021-10-20T06:54:10Z
2021-10-20T04:55:49Z,42.805,6.029,13.2993,4.60015,2470.46,2021-10-20T06:57:13Z
2021-10-20T04:58:52Z,42.805,6.029,13.2995,4.60009,2470.52,2021-10-20T07:00:16Z
2021-10-20T05:01:55Z,42.805,6.029,13.2991,4.60009,2470.544,2021-10-20T07:03:19Z
2021-10-20T05:04:58Z,42.805,6.029,13.2989,4.60009,2470.53,2021-10-20T07:06:22Z
2021-10-20T05:08:01Z,42.805,6.029,13.2997,4.60010,2470.507,2021-10-20T07:09:25Z
2021-10-20T05:11:05Z,42.805,6.029,13.2997,4.60013,2470.53,2021-10-20T07:12:28Z
2021-10-20T05:14:08Z,42.805,6.029,13.2995,4.60009,2470.53,2021-10-20T07:15:32Z
2021-10-20T05:17:11Z,42.805,6.029,13.2996,4.60009,2470.52,2021-10-20T07:18:35Z
2021-10-20T05:20:14Z,42.805,6.029,13.2996,4.60009,2470.53,2021-10-20T07:21:38Z
2021-10-20T05:23:17Z,42.805,6.029,13.2993,4.60009,2470.544,2021-10-20T07:24:41Z
2021-10-20T05:26:20Z,42.805,6.029,13.2991,4.60009,2470.52,2021-10-20T07:27:44Z
2021-10-20T05:29:23Z,42.805,6.029,13.2996,4.60009,2470.577,2021-10-20T07:30:47Z
2021-10-20T05:32:26Z,42.805,6.029,13.2993,4.60009,2470.567,2021-10-20T07:33:50Z
2021-10-20T05:35:30Z,42.805,6.029,13.2992,4.60009,2470.567,2021-10-20T07:36:53Z
2021-10-20T05:38:33Z,42.805,6.029,13.2991,4.60009,2470.53,2021-10-20T07:39:57Z
2021-10-20T05:41:36Z,42.805,6.029,13.2990,4.60009,2470.53,2021-10-20T07:43:00Z
2021-10-20T05:44:39Z,42.805,6.029,13.2993,4.60010,2470.544,2021-10-20T07:46:03Z
2021-10-20T05:47:42Z,42.805,6.029,13.2994,4.60009,2470.553,2021-10-20T07:49:06Z
2021-10-20T05:50:45Z,42.805,6.029,13.2993,4.60016,2470.53,2021-10-20T07:52:09Z
2021-10-20T05:53:48Z,42.805,6.029,13.2990,4.60009,2470.553,2021-10-20T07:55:12Z
2021-10-20T05:56:51Z,42.805,6.029,13.2993,4.60009,2470.567,2021-10-20T07:58:15Z
2021-10-20T05:59:55Z,42.805,6.029,13.2991,4.60011,2470.577,2021-10-20T08:01:18Z
2021-10-20T06:02:58Z,42.805,6.029,13.2996,4.60009,2470.544,2021-10-20T08:04:22Z
2021-10-20T06:06:01Z,42.805,6.029,13.2993,4.60009,2470.553,2021-10-20T08:07:25Z
2021-10-20T06:09:04Z,42.805,6.029,13.2991,4.60009,2470.53,2021-10-20T08:10:28Z
2021-10-20T06:12:07Z,42.805,6.029,13.2993,4.60009,2470.567,2021-10-20T08:13:31Z
2021-10-20T06:15:10Z,42.805,6.029,13.2993,4.60009,2470.591,2021-10-20T08:16:34Z
2021-10-20T06:18:13Z,42.805,6.029,13.2993,4.60011,2470.553,2021-10-20T08:19:37Z
2021-10-20T06:21:16Z,42.805,6.029,13.3000,4.60009,2470.614,2021-10-20T08:22:40Z
2021-10-20T06:24:20Z,42.805,6.029,13.2998,4.60009,2470.544,2021-10-20T08:25:43Z
2021-10-20T06:27:23Z,42.805,6.029,13.2993,4.60012,2470.553,2021-10-20T08:28:47Z
2021-10-20T06:30:26Z,42.805,6.029,13.2991,4.60010,2470.553,2021-10-20T08:31:50Z
2021-10-20T06:33:29Z,42.805,6.029,13.2992,4.60009,2470.567,2021-10-20T08:34:53Z
2021-10-20T06:36:32Z,42.805,6.029,13.2990,4.60009,2470.614,2021-10-20T08:37:56Z
2021-10-20T06:39:35Z,42.805,6.029,13.2994,4.60010,2470.591,2021-10-20T08:40:59Z
2021-10-20T06:42:38Z,42.805,6.029,13.2993,4.60008,2470.567,2021-10-20T08:44:02Z
2021-10-20T06:45:41Z,42.805,6.029,13.2991,4.60008,2470.553,2021-10-20T08:47:05Z
2021-10-20T06:48:45Z,42.805,6.029,13.2995,4.60009,2470.53,2021-10-20T08:50:08Z
2021-10-20T06:51:48Z,42.805,6.029,13.3000,4.60010,2470.544,2021-10-20T08:53:12Z
2021-10-20T06:54:51Z,42.805,6.029,13.2991,4.60009,2470.577,2021-10-20T08:56:15Z
2021-10-20T06:57:54Z,42.805,6.029,13.2993,4.60009,2470.591,2021-10-20T08:59:18Z
2021-10-20T07:00:57Z,42.805,6.029,13.2994,4.60009,2470.567,2021-10-20T09:02:21Z
2021-10-20T07:04:00Z,42.805,6.029,13.2993,4.60011,2470.567,2021-10-20T09:05:24Z
2021-10-20T07:07:03Z,42.805,6.029,13.2992,4.60011,2470.567,2021-10-20T09:08:27Z
2021-10-20T07:10:06Z,42.805,6.029,13.2989,4.60009,2470.591,2021-10-20T09:11:30Z
2021-10-20T07:13:10Z,42.805,6.029,13.2993,4.60009,2470.577,2021-10-20T09:14:33Z
2021-10-20T07:16:13Z,42.805,6.029,13.2991,4.60009,2470.553,2021-10-20T09:17:36Z
2021-10-20T07:19:16Z,42.805,6.029,13.2988,4.60009,2470.567,2021-10-20T09:20:40Z
2021-10-20T07:22:19Z,42.805,6.029,13.2993,4.60009,2470.53,2021-10-20T09:23:43Z
2021-10-20T07:25:22Z,42.805,6.029,13.2994,4.60013,2470.567,2021-10-20T09:26:46Z
2021-10-20T07:28:25Z,42.805,6.029,13.2994,4.60009,2470.591,2021-10-20T09:29:49Z
2021-10-20T07:31:28Z,42.805,6.029,13.2993,4.60010,2470.544,2021-10-20T09:32:52Z
2021-10-20T07:34:31Z,42.805,6.029,13.2995,4.60018,2470.553,2021-10-20T09:35:55Z
2021-10-20T07:37:35Z,42.805,6.029,13.2993,4.60010,2470.544,2021-10-20T09:38:58Z
2021-10-20T07:40:38Z,42.805,6.029,13.2991,4.60010,2470.567,2021-10-20T09:42:01Z
2021-10-20T07:43:41Z,42.805,6.029,13.2995,4.60010,2470.544,2021-10-20T09:45:05Z
2021-10-20T07:46:44Z,42.805,6.029,13.2993,4.60008,2470.507,2021-10-20T09:48:08Z
2021-10-20T07:49:47Z,42.805,6.029,13.2994,4.60009,2470.553,2021-10-20T09:51:11Z
2021-10-20T07:52:50Z,42.805,6.029,13.2993,4.60009,2470.553,2021-10-20T09:54:14Z
2021-10-20T07:55:53Z,42.805,6.029,13.2991,4.60009,2470.553,2021-10-20T09:57:17Z
2021-10-20T07:58:56Z,42.805,6.029,13.2993,4.60010,2470.544,2021-10-20T10:00:20Z
2021-10-20T08:01:59Z,42.805,6.029,13.2992,4.60008,2470.544,2021-10-20T10:03:23Z
2021-10-20T08:05:03Z,42.805,6.029,13.2990,4.60008,2470.544,2021-10-20T10:06:26Z
2021-10-20T08:08:06Z,42.805,6.029,13.2996,4.60008,2470.53,2021-10-20T10:09:30Z
2021-10-20T08:11:09Z,42.805,6.029,13.2993,4.60009,2470.53,2021-10-20T10:12:33Z
2021-10-20T08:14:12Z,42.805,6.029,13.2993,4.60009,2470.577,2021-10-20T10:15:36Z
2021-10-20T08:17:15Z,42.805,6.029,13.2996,4.60010,2470.52,2021-10-20T10:18:39Z
2021-10-20T08:20:18Z,42.805,6.029,13.2993,4.60009,2470.53,2021-10-20T10:21:42Z
2021-10-20T08:23:21Z,42.805,6.029,13.2992,4.60009,2470.544,2021-10-20T10:24:45Z
2021-10-20T08:26:25Z,42.805,6.029,13.2994,4.60008,2470.567,2021-10-20T10:27:48Z
2021-10-20T08:29:28Z,42.805,6.029,13.2990,4.60010,2470.53,2021-10-20T10:30:52Z
2021-10-20T08:32:31Z,42.805,6.029,13.2991,4.60009,2470.53,2021-10-20T10:33:55Z
2021-10-20T08:35:34Z,42.805,6.029,13.2991,4.60009,2470.507,2021-10-20T10:36:58Z
2021-10-20T08:38:37Z,42.805,6.029,13.2992,4.60008,2470.52,2021-10-20T10:40:01Z
2021-10-20T08:41:40Z,42.805,6.029,13.2991,4.60009,2470.507,2021-10-20T10:43:04Z
2021-10-20T08:44:43Z,42.805,6.029,13.2994,4.60010,2470.53,2021-10-20T10:46:07Z
2021-10-20T08:47:46Z,42.805,6.029,13.2991,4.60008,2470.53,2021-10-20T10:49:10Z
2021-10-20T08:50:50Z,42.805,6.029,13.2990,4.60011,2470.553,2021-10-20T10:52:13Z
2021-10-20T08:53:53Z,42.805,6.029,13.2990,4.60009,2470.507,2021-10-20T10:55:17Z
2021-10-20T08:56:56Z,42.805,6.029,13.2993,4.60009,2470.52,2021-10-20T10:58:20Z
2021-10-20T08:59:59Z,42.805,6.029,13.2990,4.60011,2470.507,2021-10-20T11:01:23Z
2021-10-20T09:03:02Z,42.805,6.029,13.2991,4.60008,2470.507,2021-10-20T11:04:26Z
2021-10-20T09:06:05Z,42.805,6.029,13.2996,4.60009,2470.52,2021-10-20T11:07:29Z
2021-10-20T09:09:08Z,42.805,6.029,13.2993,4.60013,2470.52,2021-10-20T11:10:32Z
2021-10-20T09:12:11Z,42.805,6.029,13.2994,4.60009,2470.53,2021-10-20T11:13:35Z
2021-10-20T09:15:15Z,42.805,6.029,13.2995,4.60008,2470.483,2021-10-20T11:16:38Z
2021-10-20T09:18:18Z,42.805,6.029,13.2993,4.60010,2470.53,2021-10-20T11:19:42Z
2021-10-20T09:21:21Z,42.805,6.029,13.2992,4.60009,2470.52,2021-10-20T11:22:45Z
2021-10-20T09:24:24Z,42.805,6.029,13.2989,4.60008,2470.507,2021-10-20T11:25:48Z
2021-10-20T09:27:27Z,42.805,6.029,13.2990,4.60008,2470.52,2021-10-20T11:28:51Z
2021-10-20T09:30:30Z,42.805,6.029,13.2995,4.60008,2470.507,2021-10-20T11:31:54Z
2021-10-20T09:33:33Z,42.805,6.029,13.2988,4.60009,2470.497,2021-10-20T11:34:57Z
2021-10-20T09:36:36Z,42.805,6.029,13.2993,4.60008,2470.507,2021-10-20T11:38:00Z
2021-10-20T09:39:40Z,42.805,6.029,13.2991,4.60009,2470.52,2021-10-20T11:41:03Z
2021-10-20T09:42:43Z,42.805,6.029,13.2991,4.60009,2470.497,2021-10-20T11:44:07Z
2021-10-20T09:45:46Z,42.805,6.029,13.2991,4.60009,2470.52,2021-10-20T11:47:10Z
2021-10-20T09:48:49Z,42.805,6.029,13.2991,4.60010,2470.53,2021-10-20T11:50:13Z
2021-10-20T09:51:52Z,42.805,6.029,13.2991,4.60009,2470.507,2021-10-20T11:53:16Z
2021-10-20T09:54:55Z,42.805,6.029,13.2993,4.60009,2470.483,2021-10-20T11:56:19Z
2021-10-20T09:57:58Z,42.805,6.029,13.2994,4.60009,2470.474,2021-10-20T11:59:22Z
2021-10-20T10:01:02Z,42.805,6.029,13.2990,4.60009,2470.483,2021-10-20T12:02:25Z
2021-10-20T10:04:05Z,42.805,6.029,13.2992,4.60009,2470.497,2021-10-20T12:05:29Z
2021-10-20T10:07:08Z,42.805,6.029,13.2994,4.60009,2470.483,2021-10-20T12:08:32Z
2021-10-20T10:10:11Z,42.805,6.029,13.2990,4.60009,2470.483,2021-10-20T12:11:35Z
2021-10-20T10:13:14Z,42.805,6.029,13.2991,4.60010,2470.507,2021-10-20T12:14:38Z
2021-10-20T10:16:17Z,42.805,6.029,13.2992,4.60009,2470.497,2021-10-20T12:17:41Z
2021-10-20T10:19:20Z,42.805,6.029,13.2993,4.60008,2470.507,2021-10-20T12:20:44Z
2021-10-20T10:22:23Z,42.805,6.029,13.2989,4.60009,2470.474,2021-10-20T12:23:47Z
2021-10-20T10:25:27Z,42.805,6.029,13.2991,4.60009,2470.497,2021-10-20T12:26:50Z
2021-10-20T10:28:30Z,42.805,6.029,13.2993,4.60008,2470.45,2021-10-20T12:29:54Z
2021-10-20T10:31:33Z,42.805,6.029,13.2993,4.60013,2470.46,2021-10-20T12:32:57Z
2021-10-20T10:34:36Z,42.805,6.029,13.2990,4.60008,2470.483,2021-10-20T12:36:00Z
2021-10-20T10:37:39Z,42.805,6.029,13.2993,4.60008,2470.45,2021-10-20T12:39:03Z
2021-10-20T10:40:42Z,42.805,6.029,13.2993,4.60008,2470.46,2021-10-20T12:42:06Z
2021-10-20T10:43:45Z,42.805,6.029,13.2998,4.60009,2470.507,2021-10-20T12:45:09Z
2021-10-20T10:46:48Z,42.805,6.029,13.2992,4.60008,2470.46,2021-10-20T12:48:12Z
2021-10-20T10:49:52Z,42.805,6.029,13.2990,4.60007,2470.483,2021-10-20T12:51:15Z
2021-10-20T10:52:55Z,42.805,6.029,13.2991,4.60007,2470.437,2021-10-20T12:54:19Z
2021-10-20T10:55:58Z,42.805,6.029,13.2993,4.60013,2470.437,2021-10-20T12:57:22Z
2021-10-20T10:59:01Z,42.805,6.029,13.2993,4.60009,2470.45,2021-10-20T13:00:25Z
2021-10-20T11:02:04Z,42.805,6.029,13.2994,4.60009,2470.46,2021-10-20T13:03:28Z
2021-10-20T11:05:07Z,42.805,6.029,13.2996,4.60009,2470.483,2021-10-20T13:06:31Z
2021-10-20T11:08:10Z,42.805,6.029,13.2991,4.60009,2470.46,2021-10-20T13:09:34Z
2021-10-20T11:11:13Z,42.805,6.029,13.2993,4.60009,2470.437,2021-10-20T13:12:37Z
2021-10-20T11:14:17Z,42.805,6.029,13.2991,4.60009,2470.437,2021-10-20T13:15:40Z
2021-10-20T11:17:20Z,42.805,6.029,13.2996,4.60008,2470.474,2021-10-20T13:18:44Z
2021-10-20T11:20:23Z,42.805,6.029,13.2990,4.60011,2470.45,2021-10-20T13:21:47Z
2021-10-20T11:23:26Z,42.805,6.029,13.2992,4.60008,2470.45,2021-10-20T13:24:50Z
2021-10-20T11:26:29Z,42.805,6.029,13.2991,4.60009,2470.497,2021-10-20T13:27:53Z
2021-10-20T11:29:32Z,42.805,6.029,13.2990,4.60009,2470.437,2021-10-20T13:30:56Z
2021-10-20T11:32:35Z,42.805,6.029,13.2991,4.60011,2470.437,2021-10-20T13:33:59Z
2021-10-20T11:35:38Z,42.805,6.029,13.2991,4.60007,2470.427,2021-10-20T13:37:02Z
2021-10-20T11:38:42Z,42.805,6.029,13.2991,4.60007,2470.437,2021-10-20T13:40:05Z
2021-10-20T11:41:45Z,42.805,6.029,13.2991,4.60008,2470.437,2021-10-20T13:43:09Z
2021-10-20T11:44:48Z,42.805,6.029,13.2992,4.60008,2470.45,2021-10-20T13:46:12Z
2021-10-20T11:47:51Z,42.805,6.029,13.2989,4.60008,2470.404,2021-10-20T13:49:15Z
2021-10-20T11:50:54Z,42.805,6.029,13.2990,4.60009,2470.437,2021-10-20T13:52:18Z
2021-10-20T11:53:57Z,42.805,6.029,13.2992,4.60007,2470.39,2021-10-20T13:55:21Z
2021-10-20T11:57:00Z,42.805,6.029,13.2991,4.60009,2470.39,2021-10-20T13:58:24Z
2021-10-20T12:00:03Z,42.805,6.029,13.2990,4.60009,2470.46,2021-10-20T14:01:27Z
2021-10-20T12:03:07Z,42.805,6.029,13.2994,4.60008,2470.437,2021-10-20T14:04:30Z
2021-10-20T12:06:10Z,42.805,6.029,13.2992,4.60009,2470.39,2021-10-20T14:07:34Z
2021-10-20T12:09:13Z,42.805,6.029,13.2991,4.60009,2470.437,2021-10-20T14:10:37Z
2021-10-20T12:12:16Z,42.805,6.029,13.2991,4.60009,2470.413,2021-10-20T14:13:40Z
2021-10-20T12:15:19Z,42.805,6.029,13.2991,4.60008,2470.399,2021-10-20T14:16:43Z
2021-10-20T12:18:22Z,42.805,6.029,13.2990,4.60009,2470.413,2021-10-20T14:19:46Z
2021-10-20T12:21:25Z,42.805,6.029,13.2991,4.60008,2470.413,2021-10-20T14:22:49Z
2021-10-20T12:24:28Z,42.805,6.029,13.2991,4.60007,2470.427,2021-10-20T14:25:52Z
2021-10-20T12:27:32Z,42.805,6.029,13.2993,4.60008,2470.39,2021-10-20T14:28:55Z
2021-10-20T12:30:35Z,42.805,6.029,13.2994,4.60007,2470.404,2021-10-20T14:31:59Z
2021-10-20T12:33:38Z,42.805,6.029,13.2991,4.60007,2470.404,2021-10-20T14:35:02Z
2021-10-20T12:36:41Z,42.805,6.029,13.2992,4.60008,2470.366,2021-10-20T14:38:05Z
2021-10-20T12:39:44Z,42.805,6.029,13.2992,4.60012,2470.39,2021-10-20T14:41:08Z
2021-10-20T12:42:47Z,42.805,6.029,13.2995,4.60009,2470.404,2021-10-20T14:44:11Z
2021-10-20T12:45:50Z,42.805,6.029,13.2992,4.60009,2470.39,2021-10-20T14:47:14Z
2021-10-20T12:48:53Z,42.805,6.029,13.2986,4.60008,2470.413,2021-10-20T14:50:17Z
2021-10-20T12:51:57Z,42.805,6.029,13.2991,4.60008,2470.413,2021-10-20T14:53:20Z
2021-10-20T12:55:00Z,42.805,6.029,13.2993,4.60008,2470.39,2021-10-20T14:56:24Z
2021-10-20T12:58:03Z,42.805,6.029,13.2991,4.60007,2470.404,2021-10-20T14:59:27Z
2021-10-20T13:01:06Z,42.805,6.029,13.2995,4.60011,2470.366,2021-10-20T15:02:30Z
2021-10-20T13:04:09Z,42.805,6.029,13.2990,4.60008,2470.366,2021-10-20T15:05:33Z
2021-10-20T13:07:12Z,42.805,6.029,13.2993,4.60007,2470.413,2021-10-20T15:08:36Z
2021-10-20T13:10:15Z,42.805,6.029,13.2993,4.60010,2470.413,2021-10-20T15:11:39Z
2021-10-20T13:13:19Z,42.805,6.029,13.2991,4.60008,2470.366,2021-10-20T15:14:42Z
2021-10-20T13:16:22Z,42.805,6.029,13.2991,4.60007,2470.366,2021-10-20T15:17:46Z
2021-10-20T13:19:25Z,42.805,6.029,13.2991,4.60008,2470.33,2021-10-20T15:20:49Z
2021-10-20T13:22:28Z,42.805,6.029,13.2992,4.60009,2470.404,2021-10-20T15:23:52Z
2021-10-20T13:25:31Z,42.805,6.029,13.2996,4.60008,2470.343,2021-10-20T15:26:55Z
2021-10-20T13:28:34Z,42.805,6.029,13.2995,4.60008,2470.404,2021-10-20T15:29:58Z
2021-10-20T13:31:37Z,42.805,6.029,13.2992,4.60007,2470.366,2021-10-20T15:33:01Z
2021-10-20T13:34:40Z,42.805,6.029,13.2991,4.60008,2470.39,2021-10-20T15:36:04Z
2021-10-20T13:37:44Z,42.805,6.029,13.2989,4.60009,2470.404,2021-10-20T15:39:07Z
2021-10-20T13:40:47Z,42.805,6.029,13.2993,4.60009,2470.38,2021-10-20T15:42:11Z
2021-10-20T13:43:50Z,42.805,6.029,13.2993,4.60007,2470.404,2021-10-20T15:45:14Z
2021-10-20T13:46:53Z,42.805,6.029,13.2991,4.60007,2470.366,2021-10-20T15:48:17Z
2021-10-20T13:49:56Z,42.805,6.029,13.2989,4.60011,2470.39,2021-10-20T15:51:20Z
2021-10-20T13:52:59Z,42.805,6.029,13.2990,4.60009,2470.39,2021-10-20T15:54:23Z
2021-10-20T13:56:02Z,42.805,6.029,13.2993,4.60008,2470.38,2021-10-20T15:57:26Z
2021-10-20T13:59:05Z,42.805,6.029,13.2990,4.60008,2470.413,2021-10-20T16:00:29Z
2021-10-20T14:02:09Z,42.805,6.029,13.2995,4.60007,2470.39,2021-10-20T16:03:32Z
2021-10-20T14:05:12Z,42.805,6.029,13.2991,4.60008,2470.366,2021-10-20T16:06:36Z
2021-10-20T14:08:15Z,42.805,6.029,13.2992,4.60009,2470.404,2021-10-20T16:09:39Z
2021-10-20T14:11:18Z,42.805,6.029,13.2993,4.60008,2470.413,2021-10-20T16:12:42Z
2021-10-20T14:14:21Z,42.805,6.029,13.2991,4.60008,2470.413,2021-10-20T16:15:45Z
2021-10-20T14:17:24Z,42.805,6.029,13.2991,4.60008,2470.404,2021-10-20T16:18:48Z
2021-10-20T14:20:27Z,42.805,6.029,13.2993,4.60009,2470.404,2021-10-20T16:21:51Z
2021-10-20T14:23:30Z,42.805,6.029,13.2993,4.60009,2470.357,2021-10-20T16:24:54Z
2021-10-20T14:26:34Z,42.805,6.029,13.2991,4.60007,2470.39,2021-10-20T16:27:57Z
2021-10-20T14:29:37Z,42.805,6.029,13.2990,4.60009,2470.366,2021-10-20T16:31:01Z
2021-10-20T14:32:40Z,42.805,6.029,13.2993,4.60009,2470.404,2021-10-20T16:34:04Z
2021-10-20T14:35:43Z,42.805,6.029,13.2991,4.60009,2470.366,2021-10-20T16:37:07Z
2021-10-20T14:38:46Z,42.805,6.029,13.2991,4.60009,2470.404,2021-10-20T16:40:10Z
2021-10-20T14:41:49Z,42.805,6.029,13.2993,4.60007,2470.39,2021-10-20T16:43:13Z
2021-10-20T14:44:52Z,42.805,6.029,13.2993,4.60007,2470.366,2021-10-20T16:46:16Z
2021-10-20T14:47:55Z,42.805,6.029,13.2990,4.60009,2470.38,2021-10-20T16:49:19Z
2021-10-20T14:50:59Z,42.805,6.029,13.2995,4.60009,2470.427,2021-10-20T16:52:22Z
2021-10-20T14:54:02Z,42.805,6.029,13.2990,4.60008,2470.427,2021-10-20T16:55:26Z
2021-10-20T14:57:05Z,42.805,6.029,13.2987,4.60010,2470.427,2021-10-20T16:58:29Z
2021-10-20T15:00:08Z,42.805,6.029,13.2993,4.60008,2470.427,2021-10-20T17:01:32Z
2021-10-20T15:03:11Z,42.805,6.029,13.2991,4.60008,2470.404,2021-10-20T17:04:35Z